Regional Weather Roundup
Issued by NWS

Home | Current Version | Previous Version | Graphics & Text | Print | Product List | Glossary On
Versions: 1 2 3 4 5 6 7 8 9 10 11 12 13 14 15 16 17 18 19 20 21 22 23 24 25 26 27 28 29 30 31 32 33 34 35 36 37 38 39 40 41 42 43 44 45 46 47 48 49 50
000
ASUS45 KCYS 261810
RWRWY

WYOMING REGIONAL WEATHER ROUNDUP
NATIONAL WEATHER SERVICE CHEYENNE WY
1200 PM MDT TUE JUL 26 2016

NOTE:  "FAIR" INDICATES FEW OR NO CLOUDS BELOW 12,000 FEET
WITH NO SIGNIFICANT WEATHER AND/OR OBSTRUCTIONS TO VISIBILITY.

WYZ001-261900-
YELLOWSTONE NATIONAL PARK

CITY           SKY/WX    TMP DP  RH WIND       PRES   REMARKS
LK YELLOWSTONE   N/A     66  40  38 VRB6      30.38F
6HR MIN TEMP:  39; 6HR MAX TEMP:  68;

W YELLOWSTONE  NOT AVBL

$$
WYZ002>013-054>058-071-098>099-261900-
NORTHERN WYOMING

CITY           SKY/WX    TMP DP  RH WIND       PRES   REMARKS
JACKSON        SUNNY     84  30  14 CALM      30.26F
CODY           FAIR      81  48  32 NE12      30.17S
GREYBULL       FAIR      84  45  25 S6        30.08F
6HR MIN TEMP:  67; 6HR MAX TEMP:  84;

WORLAND        FAIR      83  44  25 NW6       30.10F
6HR MIN TEMP:  62; 6HR MAX TEMP:  84;

SHERIDAN       FAIR      85  44  23 SE3       30.09F
6HR MIN TEMP:  65; 6HR MAX TEMP:  87;

BUFFALO        FAIR      83  44  25 NE9       30.17F
6HR MIN TEMP:  64; 6HR MAX TEMP:  83;

GILLETTE       FAIR      83  52  34 NE5       30.11F
6HR MIN TEMP:  60; 6HR MAX TEMP:  83;

HULETT         FAIR      86  48  26 SE9       30.11F
NEWCASTLE      FAIR      86  48  26 SW16G28   30.09S

$$
WYZ014>020-022>026-101>103-261900-
CENTRAL WYOMING

CITY           SKY/WX    TMP DP  RH WIND       PRES   REMARKS
BIG PINEY      FAIR      82  29  14 SW8       30.30F
6HR MIN TEMP:  43; 6HR MAX TEMP:  82;

PINEDALE       FAIR      81  25  12 N8        30.31F
DUBOIS         FAIR      82  18   9 W9G21     30.28S
LANDER         FAIR      80  40  23 VRB6      30.18F
6HR MIN TEMP:  62; 6HR MAX TEMP:  82;

RIVERTON       FAIR      81  39  22 E8        30.18F
CASPER         FAIR      80  48  32 CALM      30.18F
6HR MIN TEMP:  58; 6HR MAX TEMP:  81;

DOUGLAS          N/A    N/A N/A N/A MISG      30.14S

$$
WYZ021-027>030-104>119-261900-
SOUTHERN WYOMING

CITY           SKY/WX    TMP DP  RH WIND       PRES   REMARKS
EVANSTON       FAIR      85  31  14 SW18G30   30.31S
6HR MIN TEMP:  55; 6HR MAX TEMP:  86;

KEMMERER         N/A    N/A N/A N/A SW10G16   30.31F
FORT BRIDGER   FAIR      87  28  12 W12G21    30.32F
ROCK SPRINGS   FAIR      85  30  13 W16G22    30.28S
6HR MIN TEMP:  58; 6HR MAX TEMP:  85;

DIXON          FAIR      87  34  15 S9G17     30.29F
RAWLINS        FAIR      87  29  12 MISG      30.27F
6HR MIN TEMP:  55; 6HR MAX TEMP:  88;

SARATOGA       FAIR      88  32  13 W14G20    30.30F
LARAMIE        FAIR      85  33  15 VRB6      30.29S
6HR MIN TEMP:  52; 6HR MAX TEMP:  85;

CHEYENNE       FAIR      87  37  17 NE7       30.20S
6HR MIN TEMP:  55; 6HR MAX TEMP:  91;

TORRINGTON     FAIR      87  56  34 NE5       30.06F
6HR MIN TEMP:  61; 6HR MAX TEMP:  87;

PINE BLUFFS    FAIR      88  46  23 CALM      30.14F

$$



USA.gov is the U.S. government's official web portal to all federal, state and local government web resources and services.